,,PA_Meas_PMT16A,,PR_Meas_QMR101_102,,RH_Meas_QMH101,,SR_Meas_QMS101,,TA_Meas_QMH101,,GenWind,,GenWind,
time,status,PA,status,PR,status,RH,status,SR,status,TA,status,DirAvg,status,SpdAvg,
2011-12-09, 00:00:04,VALID,916.94,VALID,0,VALID,97.229,VALID,0,VALID,20.2293,VALID,113,VALID,1.14141,
2011-12-09, 00:01:04,VALID,916.931,VALID,0,VALID,97.229,VALID,0,VALID,20.2489,VALID,143,VALID,1.02617,
2011-12-09, 00:02:04,VALID,916.919,VALID,0,VALID,97.2672,VALID,0,VALID,20.2879,VALID,118,VALID,1.25937,
2011-12-09, 00:03:04,VALID,916.917,VALID,0,VALID,97.2672,VALID,0,VALID,20.2684,VALID,118,VALID,1.04688,
2011-12-09, 00:04:04,VALID,916.925,VALID,0,VALID,97.2595,VALID,0,VALID,20.2879,VALID,133,VALID,0.862891,
2011-12-09, 00:05:04,VALID,916.955,VALID,0,VALID,97.2748,VALID,0,VALID,20.2879,VALID,133,VALID,1.05938,
2011-12-09, 00:06:04,VALID,916.908,VALID,0,VALID,97.29,VALID,0,VALID,20.3074,VALID,134,VALID,0.810547,
2011-12-09, 00:07:04,VALID,916.895,VALID,0,VALID,97.2824,VALID,0,VALID,20.3074,VALID,134,VALID,0.448047,
2011-12-09, 00:08:04,VALID,916.878,VALID,0,VALID,97.2824,VALID,0,VALID,20.3074,VALID,134,VALID,0.896094,
2011-12-09, 00:09:04,VALID,916.896,VALID,0,VALID,97.29,VALID,0,VALID,20.3269,VALID,134,VALID,0.483594,
2011-12-09, 00:10:04,VALID,916.885,VALID,0,VALID,97.2977,VALID,0,VALID,20.3269,VALID,134,VALID,0.2125,
2011-12-09, 00:11:04,VALID,916.845,VALID,0,VALID,97.3129,VALID,0,VALID,20.3074,VALID,134,VALID,0.144531,
2011-12-09, 00:12:04,VALID,916.838,VALID,0,VALID,97.3053,VALID,0,VALID,20.3074,VALID,134,VALID,0.613281,
2011-12-09, 00:13:04,VALID,916.816,VALID,0,VALID,97.2977,VALID,0,VALID,20.3269,VALID,134,VALID,0.373437,
2011-12-09, 00:14:04,VALID,916.794,VALID,0,VALID,97.3053,VALID,0,VALID,20.3074,VALID,134,VALID,0.326562,
2011-12-09, 00:15:04,VALID,916.783,VALID,0,VALID,97.2748,VALID,0,VALID,20.2879,VALID,134,VALID,0.760547,
2011-12-09, 00:16:04,VALID,916.815,VALID,0,VALID,97.29,VALID,0,VALID,20.2684,VALID,134,VALID,0.975391,
2011-12-09, 00:17:04,VALID,916.813,VALID,0,VALID,97.3205,VALID,0,VALID,20.2684,VALID,134,VALID,0.573438,
2011-12-09, 00:18:04,VALID,916.829,VALID,0,VALID,97.3129,VALID,0,VALID,20.2489,VALID,134,VALID,0.841406,
2011-12-09, 00:19:04,VALID,916.834,VALID,0,VALID,97.3434,VALID,0,VALID,20.2489,VALID,134,VALID,0.387109,
2011-12-09, 00:20:04,VALID,916.882,VALID,0,VALID,97.351,VALID,0,VALID,20.2684,VALID,167,VALID,0.585938,
2011-12-09, 00:21:04,VALID,916.864,VALID,0,VALID,97.3434,VALID,0,VALID,20.2879,VALID,174,VALID,0.376563,
2011-12-09, 00:22:04,VALID,916.879,VALID,0,VALID,97.3586,VALID,0,VALID,20.2668,VALID,174,VALID,0.252734,
2011-12-09, 00:23:04,VALID,916.868,VALID,0,VALID,97.3815,VALID,0,VALID,20.2879,VALID,174,VALID,0.379297,
2011-12-09, 00:24:04,VALID,916.857,VALID,0,VALID,97.3358,VALID,0,VALID,20.2684,VALID,174,VALID,0.570313,
2011-12-09, 00:25:04,VALID,916.874,VALID,0,VALID,97.3281,VALID,0,VALID,20.2489,VALID,123,VALID,0.839063,
2011-12-09, 00:26:04,VALID,916.86,VALID,0,VALID,97.351,VALID,0,VALID,20.2489,VALID,128,VALID,0.979688,
2011-12-09, 00:27:04,VALID,916.85,VALID,0,VALID,97.3586,VALID,0,VALID,20.2098,VALID,137,VALID,0.621484,
2011-12-09, 00:28:04,VALID,916.812,VALID,0,VALID,97.3586,VALID,0,VALID,20.2098,VALID,144,VALID,1.03711,
2011-12-09, 00:29:04,VALID,916.813,VALID,0,VALID,97.3663,VALID,0,VALID,20.2293,VALID,153,VALID,0.731641,
2011-12-09, 00:30:04,VALID,916.797,VALID,0,VALID,97.3968,VALID,0,VALID,20.2489,VALID,153,VALID,0.737109,
2011-12-09, 00:31:04,VALID,916.787,VALID,0,VALID,97.412,VALID,0,VALID,20.2293,VALID,128,VALID,0.974609,
2011-12-09, 00:32:04,VALID,916.795,VALID,0,VALID,97.4044,VALID,0,VALID,20.2489,VALID,137,VALID,0.807031,
2011-12-09, 00:33:04,VALID,916.77,VALID,0,VALID,97.3891,VALID,0,VALID,20.2098,VALID,147,VALID,0.785937,
2011-12-09, 00:34:04,VALID,916.769,VALID,0,VALID,97.351,VALID,0,VALID,20.1903,VALID,138,VALID,1.29609,
2011-12-09, 00:35:04,VALID,916.8,VALID,0,VALID,97.351,VALID,0,VALID,20.1513,VALID,138,VALID,0.995313,
2011-12-09, 00:36:04,VALID,916.753,VALID,0,VALID,97.3739,VALID,0,VALID,20.1513,VALID,138,VALID,0.564844,
2011-12-09, 00:37:04,VALID,916.759,VALID,0,VALID,97.3815,VALID,0,VALID,20.1513,VALID,144,VALID,0.929688,
2011-12-09, 00:38:04,VALID,916.735,VALID,0,VALID,97.3968,VALID,0,VALID,20.1318,VALID,135,VALID,1.1293,
2011-12-09, 00:39:04,VALID,916.695,VALID,0,VALID,97.3663,VALID,0,VALID,20.1123,VALID,133,VALID,1.11172,
2011-12-09, 00:40:04,VALID,916.7,VALID,0,VALID,97.3891,VALID,0,VALID,20.1318,VALID,123,VALID,1.1625,
2011-12-09, 00:41:04,VALID,916.708,VALID,0,VALID,97.4044,VALID,0,VALID,20.0928,VALID,117,VALID,1.18242,
2011-12-09, 00:42:04,VALID,916.722,VALID,0,VALID,97.3968,VALID,0,VALID,20.0928,VALID,148,VALID,1.04727,
2011-12-09, 00:43:04,VALID,916.701,VALID,0,VALID,97.3891,VALID,0,VALID,20.0733,VALID,138,VALID,1.44531,
2011-12-09, 00:44:04,VALID,916.683,VALID,0,VALID,97.3968,VALID,0,VALID,20.0538,VALID,133,VALID,0.775,
2011-12-09, 00:45:04,VALID,916.685,VALID,0,VALID,97.3968,VALID,0,VALID,20.0538,VALID,139,VALID,0.847656,
2011-12-09, 00:46:04,VALID,916.664,VALID,0,VALID,97.412,VALID,0,VALID,20.0538,VALID,141,VALID,1.13594,
2011-12-09, 00:47:04,VALID,916.645,VALID,0,VALID,97.3968,VALID,0,VALID,20.0343,VALID,165,VALID,0.978516,
2011-12-09, 00:48:04,VALID,916.654,VALID,0,VALID,97.412,VALID,0,VALID,20.0148,VALID,151,VALID,0.798828,
2011-12-09, 00:49:04,VALID,916.648,VALID,0,VALID,97.412,VALID,0,VALID,19.9953,VALID,151,VALID,0.675,
2011-12-09, 00:50:04,VALID,916.631,VALID,0,VALID,97.4196,VALID,0,VALID,19.9758,VALID,151,VALID,0.484375,
2011-12-09, 00:51:04,VALID,916.644,VALID,0,VALID,97.3891,VALID,0,VALID,19.9968,VALID,151,VALID,0.576172,
2011-12-09, 00:52:04,VALID,916.666,VALID,0,VALID,97.4273,VALID,0,VALID,19.9563,VALID,151,VALID,0.939844,
2011-12-09, 00:53:04,VALID,916.66,VALID,0,VALID,97.4273,VALID,0,VALID,19.9563,VALID,151,VALID,0.250781,
2011-12-09, 00:54:04,VALID,916.696,VALID,0,VALID,97.4349,VALID,0,VALID,19.9563,VALID,151,VALID,0.283203,
2011-12-09, 00:55:04,VALID,916.69,VALID,0,VALID,97.4654,VALID,0,VALID,19.9563,VALID,151,VALID,0.420703,
2011-12-09, 00:56:04,VALID,916.689,VALID,0,VALID,97.4425,VALID,0,VALID,19.9563,VALID,151,VALID,1.30586,
2011-12-09, 00:57:04,VALID,916.692,VALID,0,VALID,97.4273,VALID,0,VALID,19.9173,VALID,151,VALID,0.428906,
2011-12-09, 00:58:04,VALID,916.708,VALID,0,VALID,97.4501,VALID,0,VALID,19.9173,VALID,151,VALID,0.476172,
2011-12-09, 00:59:04,VALID,916.704,VALID,0,VALID,97.4273,VALID,0,VALID,19.9173,VALID,151,VALID,1.2582,
2011-12-09, 01:00:04,VALID,916.702,VALID,0,VALID,97.4577,VALID,0,VALID,19.9188,VALID,161,VALID,0.747266,
2011-12-09, 01:01:04,VALID,916.701,VALID,0,VALID,97.4654,VALID,0,VALID,19.8978,VALID,152,VALID,0.573438,
2011-12-09, 01:02:04,VALID,916.689,VALID,0,VALID,97.473,VALID,0,VALID,19.9188,VALID,154,VALID,1.01602,
2011-12-09, 01:03:04,VALID,916.67,VALID,0,VALID,97.4806,VALID,0,VALID,19.8978,VALID,155,VALID,0.718359,
2011-12-09, 01:04:04,VALID,916.631,VALID,0,VALID,97.4654,VALID,0,VALID,19.8978,VALID,137,VALID,1.44453,
2011-12-09, 01:05:04,VALID,916.636,VALID,0,VALID,97.4654,VALID,0,VALID,19.8783,VALID,126,VALID,0.989062,
2011-12-09, 01:06:04,VALID,916.611,VALID,0,VALID,97.4806,VALID,0,VALID,19.8978,VALID,146,VALID,1.31875,
2011-12-09, 01:07:04,VALID,916.614,VALID,0,VALID,97.4959,VALID,0,VALID,19.8783,VALID,146,VALID,0.877344,
2011-12-09, 01:08:04,VALID,916.599,VALID,0,VALID,97.4654,VALID,0,VALID,19.8378,VALID,137,VALID,1.42852,
2011-12-09, 01:09:04,VALID,916.579,VALID,0,VALID,97.473,VALID,0,VALID,19.8393,VALID,127,VALID,1.24258,
2011-12-09, 01:10:04,VALID,916.555,VALID,0,VALID,97.4654,VALID,0,VALID,19.8198,VALID,111,VALID,1.32969,
2011-12-09, 01:11:04,VALID,916.576,VALID,0,VALID,97.4577,VALID,0,VALID,19.7808,VALID,125,VALID,1.69609,
2011-12-09, 01:12:04,VALID,916.556,VALID,0,VALID,97.4425,VALID,0,VALID,19.7613,VALID,142,VALID,0.991797,
2011-12-09, 01:13:04,VALID,916.575,VALID,0,VALID,97.4577,VALID,0,VALID,19.7418,VALID,104,VALID,0.784766,
2011-12-09, 01:14:04,VALID,916.546,VALID,0,VALID,97.4654,VALID,0,VALID,19.7028,VALID,138,VALID,1.77344,
2011-12-09, 01:15:04,VALID,916.571,VALID,0,VALID,97.4577,VALID,0,VALID,19.6833,VALID,147,VALID,1.33711,
2011-12-09, 01:16:04,VALID,916.571,VALID,0,VALID,97.4654,VALID,0,VALID,19.6638,VALID,133,VALID,0.962891,
2011-12-09, 01:17:04,VALID,916.569,VALID,0,VALID,97.4425,VALID,0,VALID,19.6248,VALID,133,VALID,0.847266,
2011-12-09, 01:18:04,VALID,916.583,VALID,0,VALID,97.4654,VALID,0,VALID,19.6053,VALID,137,VALID,1.00312,
2011-12-09, 01:19:04,VALID,916.596,VALID,0,VALID,97.4806,VALID,0,VALID,19.6263,VALID,150,VALID,0.913672,
2011-12-09, 01:20:04,VALID,916.57,VALID,0,VALID,97.473,VALID,0,VALID,19.5858,VALID,156,VALID,1.05586,
2011-12-09, 01:21:04,VALID,916.539,VALID,0,VALID,97.4654,VALID,0,VALID,19.5858,VALID,142,VALID,0.965625,
2011-12-09, 01:22:04,VALID,916.528,VALID,0,VALID,97.5035,VALID,0,VALID,19.5858,VALID,151,VALID,1.14141,
2011-12-09, 01:23:04,VALID,916.518,VALID,0,VALID,97.5111,VALID,0,VALID,19.6068,VALID,152,VALID,0.574609,
2011-12-09, 01:24:04,VALID,916.509,VALID,0,VALID,97.5035,VALID,0,VALID,19.5858,VALID,105,VALID,0.444922,
2011-12-09, 01:25:04,VALID,916.506,VALID,0,VALID,97.5035,VALID,0,VALID,19.5663,VALID,122,VALID,0.698438,
2011-12-09, 01:26:04,VALID,916.507,VALID,0,VALID,97.4882,VALID,0,VALID,19.5468,VALID,152,VALID,1.11719,
2011-12-09, 01:27:04,VALID,916.46,VALID,0,VALID,97.534,VALID,0,VALID,19.5468,VALID,169,VALID,1.49492,
2011-12-09, 01:28:04,VALID,916.486,VALID,0,VALID,97.5416,VALID,0,VALID,19.5663,VALID,153,VALID,0.692187,
2011-12-09, 01:29:04,VALID,916.471,VALID,0,VALID,97.5416,VALID,0,VALID,19.5663,VALID,153,VALID,0.510547,
2011-12-09, 01:30:04,VALID,916.42,VALID,0,VALID,97.5569,VALID,0,VALID,19.5663,VALID,148,VALID,1.7207,
2011-12-09, 01:31:04,VALID,916.446,VALID,0,VALID,97.5111,VALID,0,VALID,19.5678,VALID,91,VALID,1.37852,
2011-12-09, 01:32:04,VALID,916.449,VALID,0,VALID,97.534,VALID,0,VALID,19.5483,VALID,131,VALID,1.64727,
2011-12-09, 01:33:04,VALID,916.406,VALID,0,VALID,97.5416,VALID,0,VALID,19.5258,VALID,120,VALID,0.972266,
2011-12-09, 01:34:04,VALID,916.42,VALID,0,VALID,97.5187,VALID,0,VALID,19.4868,VALID,122,VALID,1.21719,
2011-12-09, 01:35:04,VALID,916.429,VALID,0,VALID,97.5416,VALID,0,VALID,19.4868,VALID,134,VALID,1.5,
2011-12-09, 01:36:04,VALID,916.42,VALID,0,VALID,97.5569,VALID,0,VALID,19.5078,VALID,136,VALID,1.38906,
2011-12-09, 01:37:04,VALID,916.445,VALID,0,VALID,97.5416,VALID,0,VALID,19.4673,VALID,147,VALID,1.35156,
2011-12-09, 01:38:04,VALID,916.433,VALID,0,VALID,97.5797,VALID,0,VALID,19.4883,VALID,163,VALID,1.40469,
2011-12-09, 01:39:04,VALID,916.451,VALID,0,VALID,97.534,VALID,0,VALID,19.4688,VALID,167,VALID,2.05508,
2011-12-09, 01:40:04,VALID,916.449,VALID,0,VALID,97.5645,VALID,0,VALID,19.4688,VALID,140,VALID,1.35625,
2011-12-09, 01:41:04,VALID,916.431,VALID,0,VALID,97.5569,VALID,0,VALID,19.4478,VALID,179,VALID,1.56562,
2011-12-09, 01:42:04,VALID,916.445,VALID,0,VALID,97.5492,VALID,0,VALID,19.4478,VALID,166,VALID,1.41719,
2011-12-09, 01:43:04,VALID,916.401,VALID,0,VALID,97.5569,VALID,0,VALID,19.4493,VALID,171,VALID,1.75156,
2011-12-09, 01:44:04,VALID,916.448,VALID,0,VALID,97.5645,VALID,0,VALID,19.4283,VALID,176,VALID,1.3457,
2011-12-09, 01:45:04,VALID,916.426,VALID,0,VALID,97.5492,VALID,0,VALID,19.4088,VALID,154,VALID,1.54414,
2011-12-09, 01:46:04,VALID,916.42,VALID,0,VALID,97.5569,VALID,0,VALID,19.3908,VALID,158,VALID,1.13477,
2011-12-09, 01:47:04,VALID,916.387,VALID,0,VALID,97.5721,VALID,0,VALID,19.3503,VALID,143,VALID,1.2707,
2011-12-09, 01:48:04,VALID,916.364,VALID,0,VALID,97.5645,VALID,0,VALID,19.3923,VALID,146,VALID,1.3707,
2011-12-09, 01:49:04,VALID,916.387,VALID,0,VALID,97.5569,VALID,0,VALID,19.3533,VALID,142,VALID,0.967969,
2011-12-09, 01:50:04,VALID,916.294,VALID,0,VALID,97.5569,VALID,0,VALID,19.3338,VALID,143,VALID,0.7875,
2011-12-09, 01:51:04,VALID,916.333,VALID,0,VALID,97.5645,VALID,0,VALID,19.3128,VALID,137,VALID,1.08359,
2011-12-09, 01:52:04,VALID,916.293,VALID,0,VALID,97.5873,VALID,0,VALID,19.3338,VALID,160,VALID,0.415625,
2011-12-09, 01:53:04,VALID,916.319,VALID,0,VALID,97.5797,VALID,0,VALID,19.3338,VALID,162,VALID,1.07578,
2011-12-09, 01:54:04,VALID,916.325,VALID,0,VALID,97.5797,VALID,0,VALID,19.3338,VALID,157,VALID,0.894531,
2011-12-09, 01:55:04,VALID,916.303,VALID,0,VALID,97.5873,VALID,0,VALID,19.3338,VALID,157,VALID,0.483594,
2011-12-09, 01:56:04,VALID,916.299,VALID,0,VALID,97.5873,VALID,0,VALID,19.3143,VALID,132,VALID,0.616406,
2011-12-09, 01:57:04,VALID,916.303,VALID,0,VALID,97.6026,VALID,0.107441,VALID,19.2933,VALID,169,VALID,0.524609,
2011-12-09, 01:58:04,VALID,916.287,VALID,0,VALID,97.5873,VALID,0,VALID,19.3128,VALID,168,VALID,0.394531,
2011-12-09, 01:59:04,VALID,916.266,VALID,0,VALID,97.595,VALID,0,VALID,19.2723,VALID,168,VALID,0.216406,
2011-12-09, 02:00:04,VALID,916.25,VALID,0,VALID,97.6026,VALID,0,VALID,19.2933,VALID,168,VALID,0.866406,
2011-12-09, 02:01:04,VALID,916.235,VALID,0,VALID,97.6026,VALID,0,VALID,19.2933,VALID,123,VALID,0.718359,
2011-12-09, 02:02:04,VALID,916.18,VALID,0,VALID,97.595,VALID,0,VALID,19.2738,VALID,123,VALID,1.06641,
2011-12-09, 02:03:04,VALID,916.154,VALID,0,VALID,97.5797,VALID,0,VALID,19.2543,VALID,123,VALID,1.1,
2011-12-09, 02:04:04,VALID,916.174,VALID,0,VALID,97.5645,VALID,0,VALID,19.2153,VALID,123,VALID,0.904688,
2011-12-09, 02:05:04,VALID,916.145,VALID,0,VALID,97.534,VALID,0,VALID,19.1958,VALID,123,VALID,0.780859,
2011-12-09, 02:06:04,VALID,916.121,VALID,0,VALID,97.5492,VALID,0,VALID,19.1568,VALID,123,VALID,0.946875,
2011-12-09, 02:07:04,VALID,916.087,VALID,0,VALID,97.5416,VALID,0,VALID,19.1568,VALID,123,VALID,1.09297,
2011-12-09, 02:08:04,VALID,916.063,VALID,0,VALID,97.5492,VALID,0,VALID,19.1178,VALID,123,VALID,0.948047,
2011-12-09, 02:09:04,VALID,916.016,VALID,0,VALID,97.5873,VALID,0,VALID,19.1193,VALID,123,VALID,1.00352,
2011-12-09, 02:10:04,VALID,916.023,VALID,0,VALID,97.5797,VALID,0,VALID,19.0788,VALID,123,VALID,1.1043,
2011-12-09, 02:11:04,VALID,915.992,VALID,0,VALID,97.6026,VALID,0,VALID,19.0788,VALID,123,VALID,1.03437,
2011-12-09, 02:12:04,VALID,915.96,VALID,0,VALID,97.6331,VALID,0,VALID,19.0788,VALID,123,VALID,0.955078,
2011-12-09, 02:13:04,VALID,915.956,VALID,0,VALID,97.6331,VALID,0,VALID,19.0593,VALID,123,VALID,0.670703,
2011-12-09, 02:14:04,VALID,915.932,VALID,0,VALID,97.6331,VALID,0,VALID,19.0803,VALID,123,VALID,0.59375,
2011-12-09, 02:15:04,VALID,915.935,VALID,0,VALID,97.6331,VALID,0,VALID,19.0203,VALID,140,VALID,1.08789,
2011-12-09, 02:16:04,VALID,915.924,VALID,0,VALID,97.6407,VALID,0,VALID,19.0203,VALID,140,VALID,1.00508,
2011-12-09, 02:17:04,VALID,915.906,VALID,0,VALID,97.6331,VALID,0,VALID,19.0023,VALID,140,VALID,0.865234,
2011-12-09, 02:18:04,VALID,915.921,VALID,0,VALID,97.6331,VALID,0.107441,VALID,18.9814,VALID,140,VALID,0.930859,
2011-12-09, 02:19:04,VALID,915.906,VALID,0,VALID,97.6331,VALID,0,VALID,18.9409,VALID,123,VALID,1.07109,
2011-12-09, 02:20:04,VALID,915.897,VALID,0,VALID,97.6255,VALID,0,VALID,18.9409,VALID,121,VALID,0.615234,
2011-12-09, 02:21:04,VALID,915.904,VALID,0,VALID,97.6026,VALID,0,VALID,18.9229,VALID,121,VALID,0.757031,
2011-12-09, 02:22:04,VALID,915.893,VALID,0,VALID,97.6026,VALID,0.107441,VALID,18.8824,VALID,121,VALID,0.794531,
2011-12-09, 02:23:04,VALID,915.889,VALID,0,VALID,97.6255,VALID,0.107441,VALID,18.9019,VALID,121,VALID,0.463672,
2011-12-09, 02:24:04,VALID,915.883,VALID,0,VALID,97.6255,VALID,0,VALID,18.8824,VALID,121,VALID,0.460938,
2011-12-09, 02:25:04,VALID,915.924,VALID,0,VALID,97.6407,VALID,0.107441,VALID,18.9019,VALID,121,VALID,0.603906,
2011-12-09, 02:26:04,VALID,915.901,VALID,0,VALID,97.6483,VALID,0,VALID,18.9019,VALID,121,VALID,0.458594,
2011-12-09, 02:27:04,VALID,915.928,VALID,0,VALID,97.6331,VALID,0.107441,VALID,18.8824,VALID,121,VALID,0.477734,
2011-12-09, 02:28:04,VALID,915.929,VALID,0,VALID,97.5873,VALID,0.107441,VALID,18.8434,VALID,121,VALID,0.615625,
2011-12-09, 02:29:04,VALID,915.914,VALID,0,VALID,97.4959,VALID,0.107441,VALID,18.785,VALID,121,VALID,0.638281,
2011-12-09, 02:30:04,VALID,915.944,VALID,0,VALID,97.4959,VALID,0,VALID,18.7655,VALID,121,VALID,0.694531,
2011-12-09, 02:31:04,VALID,915.906,VALID,0,VALID,97.5645,VALID,0,VALID,18.7864,VALID,121,VALID,0.751562,
2011-12-09, 02:32:04,VALID,915.895,VALID,0,VALID,97.6102,VALID,0.107441,VALID,18.7655,VALID,121,VALID,0.859766,
2011-12-09, 02:33:04,VALID,915.904,VALID,0,VALID,97.6483,VALID,0.107441,VALID,18.7864,VALID,121,VALID,0.919922,
2011-12-09, 02:34:04,VALID,915.922,VALID,0,VALID,97.6636,VALID,0.107441,VALID,18.7864,VALID,121,VALID,0.911719,
2011-12-09, 02:35:04,VALID,915.885,VALID,0,VALID,97.656,VALID,0.107441,VALID,18.746,VALID,121,VALID,0.787891,
2011-12-09, 02:36:04,VALID,915.869,VALID,0,VALID,97.6636,VALID,0,VALID,18.7655,VALID,121,VALID,0.830859,
2011-12-09, 02:37:04,VALID,915.866,VALID,0,VALID,97.6712,VALID,0,VALID,18.746,VALID,121,VALID,0.860156,
2011-12-09, 02:38:04,VALID,915.825,VALID,0,VALID,97.656,VALID,0,VALID,18.7265,VALID,121,VALID,0.904297,
2011-12-09, 02:39:04,VALID,915.858,VALID,0,VALID,97.6407,VALID,0.107441,VALID,18.7084,VALID,121,VALID,0.661328,
2011-12-09, 02:40:04,VALID,915.789,VALID,0,VALID,97.6331,VALID,0.107441,VALID,18.668,VALID,121,VALID,0.765625,
2011-12-09, 02:41:04,VALID,915.778,VALID,0,VALID,97.6102,VALID,0.107441,VALID,18.6485,VALID,121,VALID,0.621094,
2011-12-09, 02:42:04,VALID,915.781,VALID,0,VALID,97.6026,VALID,0,VALID,18.59,VALID,121,VALID,0.65,
2011-12-09, 02:43:04,VALID,915.759,VALID,0,VALID,97.656,VALID,0,VALID,18.59,VALID,121,VALID,0.894922,
2011-12-09, 02:44:04,VALID,915.747,VALID,0,VALID,97.6712,VALID,0,VALID,18.6109,VALID,121,VALID,0.769922,
2011-12-09, 02:45:04,VALID,915.772,VALID,0,VALID,97.6788,VALID,0,VALID,18.5705,VALID,122,VALID,1.02031,
2011-12-09, 02:46:04,VALID,915.729,VALID,0,VALID,97.7322,VALID,0.107441,VALID,18.6109,VALID,122,VALID,0.932813,
2011-12-09, 02:47:04,VALID,915.714,VALID,0,VALID,97.7398,VALID,0,VALID,18.6109,VALID,122,VALID,0.957031,
2011-12-09, 02:48:04,VALID,915.717,VALID,0,VALID,97.7551,VALID,0,VALID,18.629,VALID,122,VALID,1.09375,
2011-12-09, 02:49:04,VALID,915.732,VALID,0,VALID,97.7779,VALID,0.107441,VALID,18.629,VALID,123,VALID,1.1,
2011-12-09, 02:50:04,VALID,915.695,VALID,0,VALID,97.7856,VALID,0.107441,VALID,18.6694,VALID,127,VALID,0.798828,
2011-12-09, 02:51:04,VALID,915.73,VALID,0,VALID,97.7779,VALID,0,VALID,18.6694,VALID,133,VALID,0.923047,
2011-12-09, 02:52:04,VALID,915.679,VALID,0,VALID,97.7627,VALID,0,VALID,18.6499,VALID,133,VALID,1.0125,
2011-12-09, 02:53:04,VALID,915.692,VALID,0,VALID,97.7474,VALID,0.107441,VALID,18.6499,VALID,138,VALID,0.871875,
2011-12-09, 02:54:04,VALID,915.662,VALID,0,VALID,97.7551,VALID,0,VALID,18.6499,VALID,148,VALID,0.776563,
2011-12-09, 02:55:04,VALID,915.618,VALID,0,VALID,97.7856,VALID,0,VALID,18.6694,VALID,160,VALID,1.06758,
2011-12-09, 02:56:04,VALID,915.618,VALID,0,VALID,97.7932,VALID,0.107441,VALID,18.6694,VALID,160,VALID,0.853516,
2011-12-09, 02:57:04,VALID,915.588,VALID,0,VALID,97.7932,VALID,0,VALID,18.6889,VALID,148,VALID,0.612109,
2011-12-09, 02:58:04,VALID,915.55,VALID,0,VALID,97.7932,VALID,0.107441,VALID,18.6889,VALID,148,VALID,0.944141,
2011-12-09, 02:59:04,VALID,915.535,VALID,0,VALID,97.7474,VALID,0,VALID,18.6499,VALID,148,VALID,0.554297,
2011-12-09, 03:00:04,VALID,915.5,VALID,0,VALID,97.7779,VALID,0.107441,VALID,18.6485,VALID,151,VALID,0.904297,
2011-12-09, 03:01:04,VALID,915.537,VALID,0,VALID,97.7856,VALID,0,VALID,18.6889,VALID,151,VALID,0.705078,
2011-12-09, 03:02:04,VALID,915.532,VALID,0,VALID,97.7627,VALID,0,VALID,18.6694,VALID,151,VALID,0.778906,
2011-12-09, 03:03:04,VALID,915.508,VALID,0,VALID,97.7551,VALID,0,VALID,18.6499,VALID,151,VALID,0.908594,
2011-12-09, 03:04:04,VALID,915.538,VALID,0,VALID,97.7474,VALID,0,VALID,18.6304,VALID,151,VALID,0.814453,
2011-12-09, 03:05:04,VALID,915.499,VALID,0,VALID,97.7779,VALID,0,VALID,18.6109,VALID,132,VALID,0.823828,
2011-12-09, 03:06:04,VALID,915.493,VALID,0,VALID,97.7627,VALID,0,VALID,18.6304,VALID,132,VALID,1.26094,
2011-12-09, 03:07:04,VALID,915.483,VALID,0,VALID,97.8008,VALID,0,VALID,18.6499,VALID,132,VALID,1.38633,
2011-12-09, 03:08:04,VALID,915.443,VALID,0,VALID,97.7398,VALID,0,VALID,18.6304,VALID,132,VALID,0.692578,
2011-12-09, 03:09:04,VALID,915.431,VALID,0,VALID,97.7322,VALID,0,VALID,18.572,VALID,132,VALID,1.17031,
2011-12-09, 03:10:04,VALID,915.427,VALID,0,VALID,97.7398,VALID,0,VALID,18.5525,VALID,136,VALID,1.02031,
2011-12-09, 03:11:04,VALID,915.405,VALID,0,VALID,97.7322,VALID,0,VALID,18.5525,VALID,137,VALID,1.16875,
2011-12-09, 03:12:05,VALID,915.374,VALID,0,VALID,97.7474,VALID,0,VALID,18.6109,VALID,160,VALID,1.28789,
2011-12-09, 03:13:05,VALID,915.359,VALID,0,VALID,97.7474,VALID,0,VALID,18.6109,VALID,157,VALID,1.28125,
2011-12-09, 03:14:05,VALID,915.367,VALID,0,VALID,97.7779,VALID,0,VALID,18.6304,VALID,166,VALID,1.00742,
2011-12-09, 03:15:05,VALID,915.347,VALID,0,VALID,97.7474,VALID,0,VALID,18.6109,VALID,164,VALID,0.962109,
2011-12-09, 03:16:05,VALID,915.348,VALID,0,VALID,97.7551,VALID,0,VALID,18.6304,VALID,169,VALID,1.39844,
2011-12-09, 03:17:05,VALID,915.335,VALID,0,VALID,97.7474,VALID,0,VALID,18.6304,VALID,161,VALID,0.698438,
2011-12-09, 03:18:05,VALID,915.32,VALID,0,VALID,97.7551,VALID,0,VALID,18.6109,VALID,155,VALID,0.827734,
2011-12-09, 03:19:05,VALID,915.328,VALID,0,VALID,97.7398,VALID,0,VALID,18.6109,VALID,162,VALID,1.02656,
2011-12-09, 03:20:05,VALID,915.317,VALID,0,VALID,97.7627,VALID,0,VALID,18.572,VALID,130,VALID,0.857031,
2011-12-09, 03:21:05,VALID,915.302,VALID,0,VALID,97.7703,VALID,0,VALID,18.5929,VALID,141,VALID,1.00859,
2011-12-09, 03:22:05,VALID,915.282,VALID,0,VALID,97.7474,VALID,0,VALID,18.5525,VALID,141,VALID,0.993359,
2011-12-09, 03:23:05,VALID,915.315,VALID,0,VALID,97.7627,VALID,0,VALID,18.5734,VALID,141,VALID,1.26523,
2011-12-09, 03:24:05,VALID,915.296,VALID,0,VALID,97.7551,VALID,0,VALID,18.5734,VALID,141,VALID,1.01094,
2011-12-09, 03:25:05,VALID,915.272,VALID,0,VALID,97.8008,VALID,0,VALID,18.572,VALID,137,VALID,1.49414,
2011-12-09, 03:26:05,VALID,915.27,VALID,0,VALID,97.8008,VALID,0,VALID,18.572,VALID,137,VALID,1.0668,
2011-12-09, 03:27:05,VALID,915.24,VALID,0,VALID,97.7703,VALID,0,VALID,18.572,VALID,137,VALID,0.546484,
2011-12-09, 03:28:05,VALID,915.259,VALID,0,VALID,97.8084,VALID,0,VALID,18.5914,VALID,131,VALID,1.44141,
2011-12-09, 03:29:05,VALID,915.242,VALID,0,VALID,97.7932,VALID,0,VALID,18.5914,VALID,136,VALID,1.06172,
2011-12-09, 03:30:05,VALID,915.247,VALID,0,VALID,97.7856,VALID,0,VALID,18.5525,VALID,136,VALID,0.640625,
2011-12-09, 03:31:05,VALID,915.245,VALID,0,VALID,97.7551,VALID,0,VALID,18.5539,VALID,136,VALID,1.08672,
2011-12-09, 03:32:05,VALID,915.247,VALID,0,VALID,97.7856,VALID,0,VALID,18.5539,VALID,136,VALID,1.33594,
2011-12-09, 03:33:05,VALID,915.208,VALID,0,VALID,97.7627,VALID,0,VALID,18.5135,VALID,136,VALID,1.3375,
2011-12-09, 03:34:05,VALID,915.196,VALID,0,VALID,97.7627,VALID,0,VALID,18.5149,VALID,136,VALID,1.1582,
2011-12-09, 03:35:05,VALID,915.211,VALID,0,VALID,97.7627,VALID,0,VALID,18.494,VALID,134,VALID,1.62422,
2011-12-09, 03:36:05,VALID,915.191,VALID,0,VALID,97.7779,VALID,0,VALID,18.494,VALID,130,VALID,1.35898,
2011-12-09, 03:37:05,VALID,915.231,VALID,0,VALID,97.7779,VALID,0,VALID,18.4745,VALID,139,VALID,1.20781,
2011-12-09, 03:38:05,VALID,915.202,VALID,0,VALID,97.8084,VALID,0,VALID,18.455,VALID,92,VALID,0.886719,
2011-12-09, 03:39:05,VALID,915.22,VALID,0,VALID,97.816,VALID,0,VALID,18.4954,VALID,156,VALID,1.47539,
2011-12-09, 03:40:05,VALID,915.193,VALID,0,VALID,97.8313,VALID,0,VALID,18.494,VALID,175,VALID,1.20547,
2011-12-09, 03:41:05,VALID,915.216,VALID,0,VALID,97.816,VALID,0,VALID,18.4954,VALID,142,VALID,0.787109,
2011-12-09, 03:42:05,VALID,915.231,VALID,0,VALID,97.8237,VALID,0,VALID,18.4745,VALID,147,VALID,0.742969,
2011-12-09, 03:43:05,VALID,915.203,VALID,0,VALID,97.8237,VALID,0,VALID,18.455,VALID,147,VALID,0.413672,
2011-12-09, 03:44:05,VALID,915.203,VALID,0,VALID,97.7932,VALID,0,VALID,18.4355,VALID,147,VALID,0.392578,